Home   Weather   Catania   Past weeks

Flag for Italy Past Weather in Catania, Italy — Yesterday and Last 2 Weeks

Now
59 °F

Light rain. Broken clouds.


Feels Like: 56 °F
Forecast: 57 / 58 °F
Wind: 15 mph from East

Location: Catania / Fontanarossa

Current Time: Dec 6, 2016 at 1:04:08 pm

Latest Report: Dec 6, 2016 at 12:20 pm


Visibility: 4 mi

Pressure: 30.24 "Hg

Humidity: 88%

Dew Point: 55 °F

Location of CataniaLocation

Past Weather in Catania — Graph

°F

Catania Temperature Yesterday

Maximum temperature yesterday: 61 °F (at 10:50 am)
Minimum temperature yesterday: 48 °F (at 12:20 am)
Average temperature yesterday: 55 °F

High & Low Weather Summary for the Past Weeks

 TemperatureHumidityPressure
High70 °F (Nov 25, 11:20 am)94% (Nov 22, 3:20 am)30.33 "Hg (Nov 22, 3:20 am)
Low34 °F (Dec 1, 4:50 am)25% (Nov 30, 1:50 pm)29.74 "Hg (Nov 28, 1:50 pm)
Average56 °F76%30.08 "Hg
* Reported Nov 21 11:20 am — Dec 6 11:50 am, Catania, Weather by CustomWeather, © 2016

Note: Actual official high and low records may vary slightly from our data, if they occured in-between our weather recording intervals... More about our weather records

Advertising

Catania Weather History for the Previous 24 Hours

Scroll right to see more
 ConditionsComfort  
Time TempWeatherWind HumidityBarometerVisibility
11:50 am
Tue, Dec 6
59 °FLight rain. Broken clouds.12 mph88%30.27 "Hg4 mi
11:20 am59 °FBroken clouds.15 mph82%30.27 "HgN/A
10:50 am59 °FBroken clouds.12 mph82%30.30 "HgN/A
10:20 am59 °FBroken clouds.2 mph82%30.30 "HgN/A
9:50 am57 °FRain. Broken clouds.1 mph88%30.30 "Hg4 mi
9:20 am57 °FRain. Broken clouds.3 mph88%30.30 "Hg2 mi
8:50 am59 °FBroken clouds.12 mph82%30.27 "HgN/A
8:20 am59 °FBroken clouds.10 mph77%30.27 "HgN/A
7:50 am59 °FBroken clouds.9 mph77%30.27 "HgN/A
7:20 am59 °FBroken clouds.9 mph77%30.27 "HgN/A
6:50 am59 °FPartly cloudy.7 mph77%30.27 "HgN/A
6:20 am59 °FPartly cloudy.9 mph77%30.27 "HgN/A
5:50 am59 °FPartly cloudy.8 mph77%30.27 "Hg5 mi
5:20 am59 °FPartly cloudy.8 mph77%30.27 "Hg5 mi
4:50 am57 °FPartly cloudy.6 mph82%30.27 "Hg5 mi
4:20 am55 °FPartly cloudy.2 mph88%30.27 "Hg5 mi
3:50 am55 °FPartly cloudy.5 mph88%30.27 "Hg5 mi
3:20 am55 °FPartly cloudy.7 mph88%30.30 "Hg5 mi
2:50 am55 °FPartly cloudy.3 mph88%30.30 "Hg5 mi
2:20 am55 °FPartly cloudy.6 mph88%30.30 "Hg5 mi
1:50 am59 °FPartly cloudy.6 mph72%30.30 "HgN/A
1:20 am59 °FPartly cloudy.9 mph72%30.30 "HgN/A
12:50 am59 °FPartly cloudy.9 mph72%30.30 "HgN/A
12:20 am55 °FPartly cloudy.2 mph88%30.30 "HgN/A
11:50 pm
Mon, Dec 5
55 °FPartly cloudy.1 mph88%30.30 "HgN/A
11:20 pm55 °FPartly cloudy.6 mph82%30.30 "HgN/A
10:50 pm59 °FPartly cloudy.8 mph72%30.30 "HgN/A
10:20 pm59 °FPartly cloudy.8 mph72%30.33 "HgN/A
9:50 pm59 °FPartly cloudy.8 mph68%30.33 "HgN/A
9:20 pm59 °FPartly cloudy.9 mph72%30.33 "HgN/A
8:50 pm59 °FPassing clouds.10 mph68%30.33 "Hg5 mi
8:20 pm59 °FPassing clouds.10 mph68%30.33 "Hg5 mi
7:50 pm59 °FPassing clouds.12 mph68%30.30 "Hg5 mi
7:20 pm59 °FPassing clouds.13 mph68%30.30 "Hg5 mi
6:50 pm59 °FPassing clouds.13 mph68%30.30 "Hg5 mi
6:20 pm59 °FPassing clouds.13 mph68%30.30 "Hg5 mi
5:50 pm59 °FPassing clouds.12 mph68%30.30 "Hg5 mi
5:20 pm59 °FPassing clouds.13 mph68%30.30 "Hg5 mi
4:50 pm59 °FPassing clouds.12 mph68%30.30 "Hg5 mi
4:20 pm59 °FBroken clouds.12 mph68%30.30 "Hg5 mi
3:50 pm59 °FBroken clouds.14 mph72%30.27 "Hg5 mi
3:20 pm59 °FBroken clouds.13 mph72%30.27 "Hg5 mi
2:50 pm59 °FBroken clouds.14 mph72%30.27 "Hg5 mi
2:20 pm59 °FBroken clouds.14 mph72%30.27 "Hg5 mi
1:50 pm59 °FPartly sunny.14 mph72%30.27 "Hg5 mi
1:20 pm59 °FScattered showers. Partly sunny.15 mph72%30.27 "Hg5 mi
Weather by CustomWeather, © 2016

See weather overviewHow to use our weather pages